www.pogodaiklimat.ru

Погода и климат >> Архив погоды >> Малайзия >> Сандакан


ПОГОДА в Сандакане

  • Прогноз погоды в Сандакане
  • Монитор погоды в Сандакане

АРХИВ ПОГОДЫ в Сандакане

Время (UTC), дата Ветер
(напр.,м/с)
 
Видим.   Явления Облачность Т
(С)
Тd
(С)
f
(%)
Тe
(С)
Тes
(С)
Комфортность P
(гПа)
Po
(гПа)
Тmin
(С)
Tmax
(С)
R
(мм)
R24
(мм)
S
(см)
00 13.08 ЮЗ 1 9000 м мгла 9/1 1500 м
[Cu Sc Ac trans Cs]
+25.9 +24.3 91 +36 +39 очень
душно
1011.6 1010.4 +23.5 50
03 13.08 ЮЗ 3 12 км мгла 9/1 480 м
[Cu Sc Ac trans Cs]
+30.8 +24.0 67 +42 +51 опасность
перегрева
1011.2 1010.0
06 13.08 В 3 12 км мгла 9/3 480 м
[Cb cap Ac trans Cs]
+32.7 +24.1 61 +45 +51 опасность
перегрева
1008.8 1007.6
09 13.08 В 3 12 км мгла 9/3 480 м
[Cu Sc Ac trans Ci sp]
+30.4 +25.6 76 +45 +46 опасность
перегрева
1008.6 1007.4
12 13.08 В 2 12 км зарница 9/3 450 м
[Cb cap Ac trans Ci sp]
+27.9 +25.1 85 +40 +40 очень
душно
1010.2 1009.0 +33.0
15 13.08 штиль 0 14 км 9/4 480 м
[Cu Sc Ac trans Ci sp]
+26.9 +23.5 82 +37 +37 очень
душно
1012.2 1011.0
18 13.08 З 3 14 км 9/3 480 м
[Cu Sc Ac trans Ci sp]
+25.5 +23.4 88 +34 +34 очень
душно
1010.9 1009.7
21 13.08 З 1 14 км 9/4 450 м
[Cu Sc Ac trans Ci sp]
+25.4 +23.4 89 +34 +34 очень
душно
1010.9 1009.7
00 14.08 ЮЗ 2 12 км мгла 9/3 <50 м
[Cu Sc Ac trans Ci sp]
+26.7 +22.8 79 +35 +37 очень
душно
1012.0 1010.8 +24.4
03 14.08 ЮЗ 1 13 км мгла 9/1 480 м
[Cu hum Ci sp]
+32.0 +23.9 62 +43 +61 опасность
перегрева
1011.0 1009.8
06 14.08 С 4 12 км мгла 9/4 480 м
[Cu med, cong Ci sp]
+31.5 +25.1 69 +45 +52 опасность
перегрева
1008.4 1007.2
09 14.08 В 4 13 км мгла 9/4 480 м
[Cb cap Ac lent Ci sp]
+30.3 +25.5 76 +45 +45 опасность
перегрева
1007.9 1006.7
12 14.08 ЮВ 2 14 км зарница 9/6 450 м
[Cb cap Ac lent Ci sp]
+26.1 +23.6 86 +35 +35 очень
душно
1010.2 1009.0 +33.6
15 14.08 штиль 0 12 км зарница 9/3 450 м
[Cb cap Ac trans Ci sp]
+26.1 +24.0 88 +36 +36 очень
душно
1012.1 1010.9
18 14.08 З 1 14 км 9/3 450 м
[Cu Sc Ac trans Ci sp]
+25.0 +22.9 88 +33 +33 очень
душно
1010.9 1009.7
21 14.08 З 1 14 км 9/3 450 м
[Cu Sc Ac trans Ci sp]
+24.2 +22.6 91 +32 +32 очень
душно
1011.1 1009.9
00 15.08 ЮЗ 2 12 км мгла 8/3 2000 м
[Cu Sc Ac lent Ci sp]
+26.7 +23.4 82 +36 +39 очень
душно
1012.6 1011.4 +23.6
03 15.08 ЮЗ 3 13 км мгла 8/3 480 м
[Cu Sc Ac lent Ci sp]
+31.6 +24.0 64 +43 +51 опасность
перегрева
1011.8 1010.6
06 15.08 ЮВ 2 13 км мгла 9/4 480 м
[Cu Sc Ac lent Ci sp]
+32.7 +24.4 62 +45 +51 опасность
перегрева
1008.6 1007.4
09 15.08 ЮВ 3 14 км 9/4 480 м
[Cu Sc Ac lent Ci sp]
+28.5 +23.8 76 +39 +40 очень
душно
1008.4 1007.2
12 15.08 ЮВ 2 15 км 9/3 480 м
[Cu Sc Ac lent Ci sp]
+26.9 +24.0 84 +37 +37 очень
душно
1010.6 1009.4 +34.0
15 15.08 штиль 0 14 км 9/3 450 м
[Cu Sc Ac lent Ci sp]
+26.1 +24.3 90 +36 +36 очень
душно
1012.0 1010.8
18 15.08 З 1 14 км зарница 9/4 450 м
[Cb cap Ac lent Ci sp]
+25.5 +24.2 93 +35 +35 очень
душно
1011.3 1010.1
21 15.08 штиль 0 8000 м дымка 9/3 450 м
[Cu Sc Ac lent Ci sp]
+25.0 +24.2 95 +34 +34 очень
душно
1010.7 1009.5
00 16.08 З 1 9000 м мгла 9/3 2000 м
[Cu Sc Ac lent Ci sp]
+26.9 +23.7 83 +37 +39 очень
душно
1012.7 1011.5 +24.7
03 16.08 Ю 3 13 км мгла 9/3 500 м
[Cu Sc Ac lent Ci sp]
+30.5 +23.8 67 +42 +49 опасность
перегрева
1011.8 1010.6
06 16.08 ЮВ 2 14 км мгла 9/4 500 м
[Cu Sc Ci sp]
+33.2 +24.1 59 +45 +55 опасность
перегрева
1009.2 1008.0
09 16.08 В 3 13 км мгла 8/3 480 м
[Cu Sc Ci fib]
+30.3 +25.5 76 +45 +46 опасность
перегрева
1008.2 1007.0
12 16.08 В 3 12 км зарница 8/4 480 м
[Cu Sc Ac trans Ci fib]
+28.2 +25.9 87 +42 +42 опасность
перегрева
1010.5 1009.3 +33.8
15 16.08 З 7 13 км зарница 9/4 480 м
[Cb cap Ac lent Ci sp]
+25.7 +23.6 88 +35 +35 очень
душно
1012.6 1011.4
18 16.08 штиль 0 14 км 9/4 480 м
[Cu Sc Ac lent Ci sp]
+25.0 +23.4 91 +34 +34 очень
душно
1012.1 1010.9
21 16.08 штиль 0 14 км 8/3 480 м
[Cu Sc Ac lent Ci sp]
+24.6 +23.5 94 +33 +33 очень
душно
1011.5 1010.3
00 17.08 ЮЗ 2 15 км 8/1 2000 м
[Cu Sc Ci fib]
+26.6 +23.6 84 +36 +40 очень
душно
1012.8 1011.6 +24.1
03 17.08 СВ 3 15 км 6/3 500 м
[Cu hum Ci fib]
+30.9 +24.3 68 +43 +55 опасность
перегрева
1012.5 1011.3
06 17.08 СВ 4 15 км 8/3 480 м
[Cu hum Ci fib]
+31.0 +24.7 69 +44 +51 опасность
перегрева
1009.7 1008.5
09 17.08 СВ 4 15 км 9/1 480 м
[Cu hum Ci sp]
+29.9 +24.6 73 +42 +43 опасность
перегрева
1008.7 1007.5
12 17.08 В 2 14 км 9/3 480 м
[Cu Sc Ac trans Ci sp]
+28.0 +24.1 79 +39 +39 очень
душно
1011.4 1010.2 +31.3
15 17.08 ЮВ 1 14 км 9/5 450 м
[Cu Sc Ac trans Ci sp]
+27.7 +25.1 86 +40 +40 очень
душно
1012.5 1011.3
18 17.08 З 3 13 км зарница 9/5 450 м
[Cb cap Ac trans Ci sp]
+24.9 +23.2 90 +33 +33 очень
душно
1012.4 1011.2 0.0
21 17.08 ЮЗ 2 10 км слаб. дождь 9/5 450 м
[Cu Sc Ac lent Ci sp]
+24.0 +23.6 98 +33 +33 очень
душно
1011.5 1010.3
00 18.08 Ю 2 12 км мгла {дождь} 9/3 1500 м
[Cu Sc Ac trans Ci sp]
+26.1 +23.3 85 +35 +37 очень
душно
1012.8 1011.6 +23.7 4
03 18.08 ЮЗ 2 12 км мгла 9/3 480 м
[Cu Sc Ac trans Ci sp]
+31.1 +24.2 67 +43 +52 опасность
перегрева
1012.5 1011.3
06 18.08 В 3 12 км мгла 9/4 450 м
[Cu Sc Ac trans Ci sp]
+32.3 +23.0 58 +42 +48 опасность
перегрева
1009.5 1008.3
09 18.08 СВ 3 13 км мгла 9/4 480 м
[Cb cap Ac lent Ci sp]
+30.6 +23.2 65 +41 +42 опасность
перегрева
1008.8 1007.6
12 18.08 штиль 0 14 км зарница 9/4 480 м
[Cb cap Ac lent Ci sp]
+27.9 +24.1 80 +39 +39 очень
душно
1010.5 1009.3 +32.7
15 18.08 ЮЗ 2 14 км 9/4 450 м
[Cu Sc Ac trans Ci sp]
+26.0 +23.1 84 +35 +35 очень
душно
1012.0 1010.8
18 18.08 ЮЗ 3 14 км 9/4 450 м
[Cu Sc Ac trans Ci sp]
+24.7 +22.1 85 +32 +32 очень
душно
1010.6 1009.4
21 18.08 ЮЗ 3 14 км 9/3 480 м
[Cu Sc Ac trans Ci sp]
+24.3 +22.5 90 +32 +32 очень
душно
1010.7 1009.5
00 19.08 ЮЗ 4 12 км мгла 8/1 480 м
[Cu Sc Ac lent Ci sp]
+26.7 +22.7 79 +35 +37 очень
душно
1011.3 1010.1 +24.1
03 19.08 СВ 2 13 км мгла 9/3 480 м
[Cu Sc Ac lent Ci sp]
+31.0 +23.8 66 +43 +51 опасность
перегрева
1010.6 1009.4
06 19.08 В 3 13 км мгла 9/4 480 м
[Cu Sc Ac lent Ci sp]
+32.2 +24.3 63 +44 +49 опасность
перегрева
1007.4 1006.2
09 19.08 СВ 3 16 км мгла 9/3 500 м
[Cu Sc Ac lent Ci sp]
+30.4 +24.9 72 +43 +44 опасность
перегрева
1006.5 1005.3
12 19.08 В 2 15 км 9/3 480 м
[Cu Sc Ac lent Ci sp]
+27.9 +23.8 78 +38 +38 очень
душно
1008.9 1007.7 +32.9
15 19.08 ЮВ 3 14 км зарница 8/5 450 м
[Cb cap Ac lent Ci sp]
+27.5 +24.2 82 +38 +38 очень
душно
1010.4 1009.2
18 19.08 штиль 0 14 км 8/3 450 м
[Cu Sc Ac lent Ci sp]
+26.3 +24.6 90 +37 +37 очень
душно
1009.7 1008.5
21 19.08 ЮЗ 2 14 км 9/4 450 м
[Cu Sc Ac lent Ci sp]
+24.5 +22.5 89 +32 +32 очень
душно
1009.8 1008.6

 

Местоположение метеостанции Сандакан (Малайзия): широта 5.90 долгота 118.06 высота над уровнем моря 13 м.

В архиве по умолчанию представлена погода в Сандакане за последнюю неделю. Архивные данные за месяц целиком и за предыдущие месяцы, начиная с января 2011 года, Вы можете получить, выбрав интересующий диапазон дат из раскрывающегося списка и нажав кнопку "Ввод!".


*Определитесь, кто Вы:
робот инопланетянин человек

Внимание! Время в таблицах - всемирное. Для получения местного времени необходимо прибавить поправку, которая равна 8 ч.

Смотрите также архив погоды в соседних городах и на ближайших метеорологических станциях:

Погода в Тавау (Малайзия) (182 км)
Погода в Кота-Кинабалу (Малайзия) (222 км)
Погода в Таракане (Индонезия) (291 км)
Погода в Лабуане (Малайзия) (318 км)
Погода в Танджунгселоре (Индонезия) (349 км)
Погода в Лонгбаване (Индонезия) (358 км)
Погода в Брунее (Бруней) (363 км)
Погода в Танджунгредепе (Индонезия) (426 км)
Погода в Пуэрто-Принцесе (Филиппины) (435 км)
Погода в Замбоанге (Филиппины) (456 км)

Пояснения к столбцам:

Ветер - указаны скорость ветра в м/с - средняя за 10 мин, порывы в срок и между сроками (в фигурных скобках) и направление, откуда дует ветер: С - северный, СВ - северо-восточный, В - восточный, ЮВ - юго-восточный, Ю - южный, ЮЗ - юго-западный, З - западный, СЗ - северо-западный.
Видимость - горизонтальная дальность видимости в метрах или километрах. При видимости от 1 до 10 км при отсутствии осадков обычно наблюдается дымка, при ухудшении видимости до 1 км и менее - туман. В сухую погоду видимость может ухудшаться дымом, пылью или мглою.
Явления - указаны атмосферные явления, наблюдавшиеся в срок или в последний час перед сроком; фигурными скобками обозначены явления, наблюдавшиеся между сроками (за 1-3 часа до срока); квадратными скобками обозначены град или гололедные отложения с указанием их диаметра в мм.
Облачность - указаны через наклонную черту общая и нижняя облачность в баллах и высота нижней границы облаков в метрах; квадратными скобками обозначены формы облаков: Ci - перистые, Cs - перисто-слоистые, Cc - перисто-кучевые, Ac - высококучевые, As - высокослоистые, Sc - слоисто-кучевые, Ns - слоисто-дождевые, Cu - кучевые, Cb - кучево-дождевые. Подробнее классификацию облаков см. в Атласе облаков (PDF).
T - Температура воздуха - температура, измеренная на высоте 2 м над землей.
Td - Температура точки росы - температура, при понижении до которой содержащийся в воздухе водяной пар достигнет насыщения.
f - Относительная влажность воздуха - влажноcть воздуха, измеренная на высоте 2 м над землей.
Te - Эффективная температура - температура, которую ощущает одетый по сезону человек в тени. Характеристика душности погоды. При расчете учитывается влияние влажности воздуха и скорости ветра на теплоощущения человека.
Tes - Эффективная температура на солнце - температура, которую ощущает человек, с поправкой на солнечный нагрев. Характеристика знойности погоды. Зависит от высоты солнца над горизонтом, облачности и скорости ветра. Ночью, в пасмурную погоду, а также при ветре 12 м/с и более поправка равна нулю.
P - Атмосферное давление - приведенное к уровню моря атмосферное давление.
Po - Атмосферное давление - измеренное на уровне метеостанции атмосферное давление.
Tmin - Минимальная температура - минимум температуры воздуха на высоте 2 м над землей.
Tmax - Максимальная температура - максимум температуры воздуха на высоте 2 м над землей.
R - Количество осадков - Количество выпавших осадков за период времени, мм. При наведении курсора мыши на число - период времени, за который выпало указанное количество осадков.
R24 - Количество осадков - Количество выпавших осадков за 24 часа, мм.
S - Снежный покров - Высота снежного покрова, см. При наведении курсора мыши на число - состояние снежного покрова и степень покрытия местности в баллах.